User: anonymous   Login
Location: *
(49.9853°N, 3.5569°E)
Time: 18:18:26
(UTC+00:00)
Language:

Cosmos 1626 Rocket - Orbit

View from above orbital plane
View from above orbital plane
View from above satellite
View from above satellite

Ground track
Ground track

The orbit data is extracted from the following two-line orbital elements,

1 15495U 85009B   19320.83912969 +.00000077 +00000-0 +63985-5 0  9998
2 15495 082.5246 080.6225 0018756 300.2432 059.6926 14.83853626859765
Epoch (UTC): 16 November 2019 20:08:20
Eccentricity: 0.0018756
inclination: 82.5246°
perigee height: 604 km
apogee height: 630 km
right ascension of ascending node: 80.6225°
argument of perigee: 300.2432°
revolutions per day: 14.83853626
mean anomaly at epoch: 59.6926°
orbit number at epoch: 85976

The dashed part of the orbit path shows where the satellite is in the earth's shadow,  

DLR